When you browse on this site, cookies collect data to enhance your experience and personalize the content and advertising you see.
Visit our Privacy Policy to learn more. By continuing to use the site, you agree to this use of cookies and data.
  • In Hungary
  • List of Countries
  • For 7 days
  • Water Temperature
  • Satellite Maps
  • Weather Map
  • News
  • Weather Widgets
  • user-avatar
    Login

    Hourly Weather Cairo

    Today, 17 January, Thursday

    Time Temperature Precipitation Wind Pressure Humidity
    00:00 +8°C° 0 mm 4 mps 761 mmHg 58%
    01:00 +8°C° 0 mm 4 mps 761 mmHg 60%
    02:00 +9°C° 0 mm 3 mps 762 mmHg 63%
    03:00 +9°C° 0 mm 3 mps 762 mmHg 64%
    04:00 +8°C° 0 mm 3 mps 762 mmHg 66%
    05:00 +8°C° 0 mm 3 mps 762 mmHg 67%
    06:00 +8°C° 0 mm 3 mps 763 mmHg 67%
    07:00 +9°C° 0 mm 3 mps 763 mmHg 68%
    08:00 +9°C° 0 mm 3 mps 763 mmHg 68%
    09:00 +10°C° 0 mm 3 mps 763 mmHg 63%
    10:00 +12°C° 0 mm 3 mps 763 mmHg 58%
    11:00 +14°C° 0 mm 3 mps 763 mmHg 54%
    12:00 +14°C° 0 mm 3 mps 763 mmHg 52%
    13:00 +16°C° 0 mm 3 mps 763 mmHg 50%
    14:00 +16°C° 0 mm 3 mps 763 mmHg 48%
    15:00 +16°C° 0 mm 3 mps 763 mmHg 49%
    16:00 +16°C° 0 mm 3 mps 763 mmHg 50%
    17:00 +14°C° 0 mm 3 mps 763 mmHg 51%
    18:00 +15°C° 0 mm 2 mps 763 mmHg 54%
    19:00 +14°C° 0 mm 2 mps 763 mmHg 58%
    20:00 +13°C° 0 mm 1 mps 763 mmHg 62%
    21:00 +12°C° 0 mm 1 mps 763 mmHg 64%
    22:00 +12°C° 0 mm 1 mps 763 mmHg 66%
    23:00 +11°C° 0 mm 1 mps 763 mmHg 69%

    Tomorrow, 18 January, Friday

    Time Temperature Precipitation Wind Pressure Humidity
    00:00 +11°C° 0 mm 1 mps 763 mmHg 70%
    01:00 +11°C° 0 mm 1 mps 763 mmHg 72%
    02:00 +9°C° 0 mm 0 mps 763 mmHg 74%
    03:00 +9°C° 0 mm 0 mps 763 mmHg 75%
    04:00 +9°C° 0 mm 0 mps 763 mmHg 76%
    05:00 +9°C° 0 mm 0 mps 763 mmHg 78%
    06:00 +9°C° 0 mm 0 mps 763 mmHg 76%
    07:00 +10°C° 0 mm 0 mps 763 mmHg 73%
    08:00 +10°C° 0 mm 0 mps 763 mmHg 71%
    09:00 +13°C° 0 mm 1 mps 763 mmHg 65%
    10:00 +14°C° 0 mm 1 mps 763 mmHg 59%
    11:00 +16°C° 0 mm 1 mps 763 mmHg 54%
    12:00 +16°C° 0 mm 2 mps 763 mmHg 50%
    13:00 +17°C° 0 mm 2 mps 762 mmHg 46%
    14:00 +18°C° 0 mm 2 mps 762 mmHg 43%
    15:00 +18°C° 0 mm 2 mps 762 mmHg 43%
    16:00 +18°C° 0 mm 3 mps 762 mmHg 44%
    17:00 +17°C° 0 mm 3 mps 762 mmHg 44%
    18:00 +17°C° 0 mm 3 mps 762 mmHg 47%
    19:00 +16°C° 0 mm 3 mps 762 mmHg 50%
    20:00 +14°C° 0 mm 3 mps 763 mmHg 53%
    21:00 +13°C° 0 mm 3 mps 763 mmHg 55%
    22:00 +13°C° 0 mm 3 mps 763 mmHg 57%
    23:00 +12°C° 0 mm 3 mps 763 mmHg 59%

    Day after tomorrow, 19 January, Saturday

    Time Temperature Precipitation Wind Pressure Humidity
    00:00 +13°C° 0 mm 2 mps 763 mmHg 62%
    01:00 +12°C° 0 mm 2 mps 763 mmHg 64%
    02:00 +12°C° 0 mm 2 mps 762 mmHg 67%
    03:00 +12°C° 0 mm 2 mps 762 mmHg 69%
    04:00 +10°C° 0 mm 2 mps 762 mmHg 71%
    05:00 +10°C° 0 mm 2 mps 761 mmHg 73%
    06:00 +10°C° 0 mm 2 mps 762 mmHg 73%
    07:00 +10°C° 0 mm 2 mps 762 mmHg 73%
    08:00 +11°C° 0 mm 3 mps 762 mmHg 73%
    09:00 +12°C° 0 mm 3 mps 762 mmHg 65%
    10:00 +14°C° 0 mm 4 mps 762 mmHg 58%
    11:00 +17°C° 0 mm 4 mps 762 mmHg 51%
    12:00 +18°C° 0 mm 4 mps 762 mmHg 46%
    13:00 +18°C° 0 mm 4 mps 761 mmHg 42%
    14:00 +19°C° 0 mm 4 mps 760 mmHg 38%
    15:00 +19°C° 0 mm 4 mps 760 mmHg 39%
    16:00 +19°C° 0 mm 4 mps 760 mmHg 40%
    17:00 +18°C° 0 mm 3 mps 760 mmHg 41%
    18:00 +17°C° 0 mm 3 mps 761 mmHg 46%
    19:00 +15°C° 0 mm 4 mps 761 mmHg 51%
    20:00 +14°C° 0 mm 4 mps 761 mmHg 56%
    21:00 +14°C° 0 mm 4 mps 761 mmHg 60%
    22:00 +13°C° 0 mm 4 mps 762 mmHg 64%
    23:00 +13°C° 0 mm 4 mps 762 mmHg 68%

    20 January, Sunday

    Time Temperature Precipitation Wind Pressure Humidity
    00:00 +12°C° 0 mm 3 mps 761 mmHg 69%
    01:00 +12°C° 0 mm 3 mps 761 mmHg 70%
    02:00 +12°C° 0 mm 3 mps 761 mmHg 71%
    03:00 +11°C° 0 mm 3 mps 761 mmHg 71%
    04:00 +11°C° 0 mm 3 mps 761 mmHg 72%
    05:00 +11°C° 0 mm 3 mps 761 mmHg 73%
    06:00 +11°C° 0 mm 3 mps 761 mmHg 71%
    07:00 +11°C° 0 mm 3 mps 762 mmHg 70%
    08:00 +13°C° 0 mm 2 mps 762 mmHg 69%
    09:00 +13°C° 0 mm 3 mps 762 mmHg 59%
    10:00 +16°C° 0 mm 3 mps 762 mmHg 49%
    11:00 +18°C° 0 mm 3 mps 761 mmHg 40%
    12:00 +19°C° 0 mm 3 mps 761 mmHg 36%
    13:00 +20°C° 0 mm 2 mps 760 mmHg 32%
    14:00 +21°C° 0 mm 1 mps 759 mmHg 28%
    15:00 +21°C° 0 mm 1 mps 760 mmHg 28%
    16:00 +21°C° 0 mm 1 mps 760 mmHg 29%
    17:00 +21°C° 0 mm 1 mps 760 mmHg 29%
    18:00 +20°C° 0 mm 1 mps 760 mmHg 31%
    19:00 +19°C° 0 mm 1 mps 760 mmHg 33%
    20:00 +18°C° 0 mm 1 mps 761 mmHg 35%
    21:00 +18°C° 0 mm 1 mps 761 mmHg 38%
    22:00 +16°C° 0 mm 1 mps 761 mmHg 40%
    23:00 +16°C° 0 mm 2 mps 761 mmHg 42%

    21 January, Monday

    Time Temperature Precipitation Wind Pressure Humidity
    00:00 +16°C° 0 mm 1 mps 761 mmHg 44%
    01:00 +15°C° 0 mm 1 mps 760 mmHg 45%
    02:00 +15°C° 0 mm 1 mps 760 mmHg 46%
    03:00 +14°C° 0 mm 1 mps 760 mmHg 48%
    04:00 +14°C° 0 mm 1 mps 760 mmHg 49%
    05:00 +13°C° 0 mm 1 mps 760 mmHg 50%
    06:00 +14°C° 0 mm 1 mps 761 mmHg 48%
    07:00 +13°C° 0 mm 0 mps 761 mmHg 47%
    08:00 +14°C° 0 mm 0 mps 761 mmHg 45%
    09:00 +15°C° 0 mm 0 mps 761 mmHg 40%
    10:00 +17°C° 0 mm 0 mps 761 mmHg 35%
    11:00 +19°C° 0 mm 0 mps 761 mmHg 30%
    12:00 +20°C° 0 mm 0 mps 761 mmHg 29%
    13:00 +21°C° 0 mm 0 mps 760 mmHg 28%
    14:00 +23°C° 0 mm 1 mps 760 mmHg 27%
    15:00 +23°C° 0 mm 1 mps 760 mmHg 28%
    16:00 +22°C° 0 mm 1 mps 760 mmHg 28%
    17:00 +22°C° 0 mm 1 mps 760 mmHg 29%
    18:00 +21°C° 0 mm 1 mps 760 mmHg 31%
    19:00 +20°C° 0 mm 1 mps 760 mmHg 33%
    20:00 +18°C° 0 mm 2 mps 761 mmHg 34%
    21:00 +18°C° 0 mm 1 mps 761 mmHg 37%
    22:00 +16°C° 0 mm 1 mps 761 mmHg 40%
    23:00 +16°C° 0 mm 1 mps 761 mmHg 44%

    22 January, Tuesday

    Time Temperature Precipitation Wind Pressure Humidity
    00:00 +15°C° 0 mm 1 mps 760 mmHg 44%
    01:00 +15°C° 0 mm 1 mps 760 mmHg 45%
    02:00 +13°C° 0 mm 0 mps 760 mmHg 46%
    03:00 +14°C° 0 mm 1 mps 760 mmHg 47%
    04:00 +14°C° 0 mm 1 mps 759 mmHg 49%
    05:00 +13°C° 0 mm 1 mps 759 mmHg 50%
    06:00 +14°C° 0 mm 1 mps 760 mmHg 48%
    07:00 +14°C° 0 mm 1 mps 760 mmHg 47%
    08:00 +14°C° 0 mm 0 mps 760 mmHg 46%
    09:00 +16°C° 0 mm 0 mps 760 mmHg 40%
    10:00 +18°C° 0 mm 0 mps 760 mmHg 34%
    11:00 +20°C° 0 mm 0 mps 760 mmHg 29%
    12:00 +21°C° 0 mm 0 mps 759 mmHg 26%
    13:00 +22°C° 0 mm 0 mps 759 mmHg 23%
    14:00 +25°C° 0 mm 1 mps 758 mmHg 21%
    15:00 +24°C° 0 mm 1 mps 758 mmHg 21%
    16:00 +24°C° 0 mm 1 mps 758 mmHg 21%
    17:00 +24°C° 0 mm 2 mps 757 mmHg 22%
    18:00 +23°C° 0 mm 2 mps 757 mmHg 23%
    19:00 +21°C° 0 mm 3 mps 758 mmHg 25%
    20:00 +20°C° 0 mm 4 mps 758 mmHg 26%
    21:00 +20°C° 0 mm 3 mps 757 mmHg 27%
    22:00 +19°C° 0 mm 3 mps 757 mmHg 27%
    23:00 +19°C° 0 mm 3 mps 757 mmHg 28%
    Show more